Starlink 30536

operational
NORAD ID: 57993 Int'l Des: 2023-153 Owner: SPXS Country: US Constellation: starlink
LEOCIRCULAR

About Starlink 30536

Description loading...

Live Position

Loading 3D Globe...

Upcoming Passes

Altitude History

Altitude vs Time

uPlot chart will show altitude changes over time

Two-Line Element Set

1 57993U 23153C 25302.66536325 .00002247 00000-0 18136-3 0 9992
2 57993 43.0005 60.9823 0001378 266.8766 93.1918 15.02537514115163
Epoch: Oct 29, 2025 • Age: 34 hours

Current Status

Altitude 559.4 km
Velocity 7.58 km/s
Sub-Earth Point -3.40°S, 162.81°E
Launch Date Oct 5, 2023
Age 2 years
Type internet

Technical Details

Classification Payload
Mass 730.00 kg
Dry Mass 700.00 kg
Total Mass 730.00 kg
Length 0.30 m
Diameter 4.10 m
Span 29.00 m
Shape Box + pan
Manufacturer SPXS
Bus Type Starlink V2M
Phase Status In Orbit
Owner/State SPXS/US

Large Constellations

Loading constellations...